Retour au catalogue

SL-12 R/B(2)

ActifGEO
NORAD 20926·ROCKET BODY·🇷🇺 Russia

Lancé Nov 3, 1990 depuis Baikonur Cosmodrome

Loading…

TLE

FraisSource: Space-Track

Époque: Sep 14, 2026, 12:46 UTC

1 20926U 90094D   26257.53223538 -.00000166  00000-0  00000+0 0  9997
2 20926  12.4085 335.3917 0033460 159.5097 193.2734  1.00853949132121

Suivez SL-12 R/B(2) en temps réel avec AllMySat

Download on the App Store